FENGYUN 1C DEB, 30286

Orbit data source: Space-Track

FENGYUN 1C DEB, 30286 is space debris in SSO originally from a launch on Mon, 10 May 1999 UTC launched from the Taiyaun Space Center, China (TSC). Fengyun 1C debris stems from the Chinese weather satellite Fengyun-1C, which was intentionally destroyed by a Chinese anti-satellite missile in 2007. This event dramatically increased the amount of space debris, with thousands of trackable fragments posing hazards to satellites and human spaceflight. The Fengyun 1C debris cloud has become a focal point in discussions about space sustainability and the need for international regulations to prevent the creation of new debris.

Loading next visibility...
Identifier
30286, 1999-025YX
Orbit
SSO
Country
Flag of CNCN / PRC
Related business
Manufacturer
Unknown
Mission
Spacecraft
Bus & Motor
Unknown
Mass
Unknown
Launch date (UTC)
1999-05-10 (27 years ago)
Launch vehicle
Unknown
Launch site
Taiyaun Space Center, China (TSC)
Object type
Payload
Rocket body
Debris
Shape & HBR
Unknown shape, 0.1 m
Radar Cross Section
Medium (>0.1 m² and <1 m²)

Expand to show TLE details & history
Last TLE update: 2 days ago

TLE from 2 days ago
0 FENGYUN 1C DEB
1 30286U 99025YX  26252.94052830  .00000092  00000-0  70792-4 0  9992
2 30286  98.6956 254.3786 0065018  80.9960 339.1254 14.12813950 12869
Epoch: 2026-09-09T22:34Z
TLE epoch observation values (Epoch: 2026-09-09T22:34:21.645Z)
Latitude
58.83674°
Longitude
-87.76694°
Altitude
815.799 km
Speed
7.474 km/s
True Right ascension
15h 59m 14s
True Declination
58° 41' 08"
Sunlit
Object was in daylight at epoch
Visualization orbit readout
Latitude
Unknown
Longitude
Unknown
Altitude
Unknown
Speed
Unknown
Apparent Right ascension
Unknown
Apparent Declination
Unknown
Sunlit
N/A
Visualization observer readout
Local Sidereal Time
07:32:40
Azimuth
Unknown
Elevation
Unknown
Doppler factor
Unknown
Orbital elements
Apogee altitude
893.902 km
Perigee altitude
799.95 km
Semi-major axis
7,225.063 km
Eccentricity
0.0065
Inclination
98.6956°
RAAN
254.3786°
Arg. of periapsis
80.996°
True anomaly
338.85789°
Mean anomaly
339.1254°
Eccentric anomaly
338.99185°
Mean motion
3.53412 °/min
Orbital period
101.86 mins
BSTAR
0.000070792
Loading maneuver chart data...
Computing Atmospheric mass density...

Documentation

Showing up to 5 results
|